User: anonymous   Login
Location: Caltech
(34.1382°N, 118.1253°W)
Time: 11:45:05
(UTC-07:00)
Language:

Aureole 3 Rocket - Orbit

View from above orbital plane
View from above orbital plane
View from above satellite
View from above satellite

Ground track
Ground track

The orbit data is extracted from the following two-line orbital elements,

1 12849U 81094B   16126.70559128  .00000826  00000-0  72605-4 0  9999
2 12849  82.4899 119.3686 0906084  70.4132 299.2482 13.49779041686959
Epoch (UTC): 05 May 2016 16:56:03
Eccentricity: 0.0906084
inclination: 82.4899°
perigee height: 398 km
apogee height: 1748 km
right ascension of ascending node: 119.3686°
argument of perigee: 70.4132°
revolutions per day: 13.49779041
mean anomaly at epoch: 299.2482°
orbit number at epoch: 68695

The dashed part of the orbit path shows where the satellite is in the earth's shadow,  

DLR